Vertical_Velocity
-6 -5 -4 -4 -8 -11 -10 4 4 -6 -18 -2 4 3 -5 -3 -1 1 2 0 -1 -1 -1 -1 -1 -2 -3 -2 -1 0 0 1 1 1 1 1 -0 -2 -3 -2 -1 -1 -1 -1 -2 -2 -3 -3 -4 -5 -5 -5 -4 -3 -3 -2 -2 -2 -1 -2 -2 -2 -2 -2 -2 -2 -1 -1 -1 -1 -2 -2 -1 -0 0 0 -0 -1 -2 -1 0 1 1 -0 -1 -0
-9 -9 -4 1 -4 -11 -15 1 7 2 -12 -8 -2 2 -1 -4 -2 1 2 1 1 1 -1 -2 -2 -2 -3 -3 -1 0 0 1 1 1 1 1 1 -0 -1 -1 -1 -1 -1 -1 -1 -1 -2 -3 -4 -4 -5 -5 -5 -4 -3 -3 -2 -1 -1 -1 -1 -2 -2 -2 -2 -2 -1 -1 -1 -2 -3 -3 -2 -1 -0 1 1 -0 -1 -0 -0 0 2 1 -0 -0
-5 -10 -9 1 1 -5 -11 -5 1 4 1 -6 -6 -2 0 -3 -3 -1 2 -0 0 1 2 -1 -2 -2 -2 -1 0 1 1 0 0 0 1 1 1 1 -0 -0 -1 -1 -1 -1 -1 -1 -1 -2 -3 -4 -5 -5 -5 -5 -4 -3 -2 -2 -1 -1 -1 -1 -2 -2 -2 -2 -1 -2 -2 -2 -3 -3 -2 -1 -1 0 1 0 -0 -1 -2 -1 1 1 0 -0
-1 -9 -13 -1 0 -2 -2 -3 -4 -2 2 -2 -4 -4 -0 -2 -3 -2 0 -1 -1 -1 1 1 0 -1 -2 -0 1 2 1 0 -0 -0 0 1 1 1 0 -0 -1 -1 -2 -2 -1 -1 -1 -1 -2 -3 -4 -4 -5 -4 -4 -3 -3 -2 -2 -1 -1 -1 -1 -1 -1 -1 -1 -1 -2 -2 -2 -2 -2 -1 -1 0 0 -0 -1 -2 -2 -0 2 1 0 0
1 -5 -12 -5 -3 -4 -2 0 -1 -3 -3 -2 -2 -3 -2 -1 -2 -3 -3 -1 -1 -1 -0 1 2 1 0 -0 1 2 2 1 -0 -0 -0 1 1 1 -0 -1 -1 -2 -2 -2 -1 -1 -1 -1 -2 -2 -3 -3 -3 -3 -3 -3 -2 -2 -2 -2 -2 -1 -1 -1 -1 -0 -1 -1 -1 -2 -1 -1 -0 -0 0 0 0 -0 -2 -2 -0 2 3 2 1 0
2 0 -6 -8 -6 -4 -4 -4 -1 -0 -4 -4 -2 -1 -1 -1 -1 -2 -3 -2 -1 -0 1 2 3 3 2 1 0 -0 -0 -0 -0 -0 -0 0 0 0 -0 -1 -1 -1 -1 -1 -1 -1 -1 -1 -1 -2 -2 -2 -2 -2 -2 -1 -1 -1 -2 -2 -2 -1 -1 -0 0 -0 -0 -1 -1 -1 -0 0 1 1 1 1 1 -0 -1 -0 1 2 2 1 0 0
-3 2 4 -6 -8 -5 0 -4 -3 -1 -2 -5 -5 -3 -0 1 0 -1 -2 -1 -0 -1 -1 1 3 4 3 1 -0 -1 -2 -2 -1 -0 0 1 0 -0 -1 -1 -1 -1 -0 -0 -0 -0 -1 -1 -1 -1 -2 -2 -1 -1 -1 -0 -0 -0 -1 -1 -1 -0 0 1 1 1 0 0 0 1 1 1 1 1 1 1 1 0 -0 0 1 1 0 -1 -1 -0
-9 -5 7 2 -5 -9 -2 1 0 -1 -2 -3 -5 -5 -5 -2 0 2 2 2 2 1 -2 -2 1 3 4 1 -1 -3 -3 -3 -2 -0 1 1 1 0 -1 -1 -1 -0 -0 0 0 -0 -1 -1 -1 -2 -2 -2 -1 -1 0 1 1 1 1 0 0 1 1 2 2 2 1 1 1 1 1 1 1 1 1 1 1 0 0 0 -0 -1 -3 -4 -3 -0
-6 -9 -5 3 1 -5 -10 -4 1 3 -1 -3 -4 -5 -7 -8 -6 -2 3 5 6 4 -1 -3 -2 1 4 2 -0 -3 -4 -3 -1 0 1 1 1 0 -0 -1 -0 0 0 -0 -0 -1 -1 -1 -2 -2 -2 -2 -1 -0 0 1 1 1 1 1 1 2 2 2 2 2 2 1 1 1 0 0 1 1 1 0 0 -0 -0 -1 -1 -3 -5 -5 -3 -0
-1 -3 -7 -4 0 1 -4 -7 -4 0 2 -2 -4 -4 -4 -7 -10 -11 -6 2 7 7 3 -1 -2 -2 1 2 1 -2 -4 -2 -0 1 1 -0 -1 -1 -1 -1 -1 -0 0 -0 -1 -1 -1 -2 -2 -2 -2 -2 -1 -0 0 0 1 1 1 1 2 2 2 2 2 2 2 1 0 -0 -0 -0 0 0 -1 -1 -1 -1 -1 -2 -3 -4 -6 -6 -4 -1
-3 -1 -1 -4 -3 -1 0 -3 -4 -2 -0 -3 -6 -7 -4 -3 -6 -11 -14 -6 2 7 6 3 1 -1 -2 -0 0 -0 -2 -1 1 2 2 -0 -2 -3 -3 -2 -1 -1 -1 -1 -1 -1 -2 -2 -3 -2 -2 -1 -1 -0 -0 0 0 1 1 1 2 2 2 2 1 1 1 1 0 0 0 -0 -1 -2 -3 -2 -2 -2 -2 -2 -3 -4 -6 -6 -5 -3
-2 -3 -3 -2 -2 -2 -2 -3 -3 -2 -1 -3 -6 -8 -8 -2 -1 -3 -10 -7 -2 2 3 4 4 3 -1 -3 -3 -1 -0 1 2 2 2 1 -1 -3 -3 -2 -1 -1 -1 -2 -2 -2 -2 -3 -3 -2 -1 -1 -1 -1 -1 -0 0 1 1 1 1 1 1 1 1 1 1 1 1 1 0 -1 -2 -3 -3 -2 -1 -1 -1 -1 -2 -3 -5 -6 -5 -3
-2 -2 -2 -3 -1 -1 -1 -2 -4 -4 -2 -2 -4 -6 -7 -2 1 1 -3 -4 -1 1 -0 1 3 4 2 -2 -4 -3 -1 1 3 3 3 1 -1 -2 -3 -2 -0 1 0 -1 -2 -2 -2 -3 -3 -2 -1 -1 -1 -1 -1 -1 -0 1 1 1 0 -0 -0 -0 -0 0 0 1 1 1 -1 -2 -2 -1 -1 -1 -1 -1 -0 -1 -2 -3 -5 -6 -5 -4
-3 -3 -2 -1 0 1 2 1 -1 -2 -2 -1 -2 -3 -4 -1 1 1 -2 -1 0 2 -0 -0 2 4 4 0 -2 -3 -3 0 2 4 4 3 1 -2 -4 -3 -0 2 2 -1 -1 -1 -1 -3 -3 -2 -0 -1 -1 -1 -1 -1 -0 -0 -0 -0 -1 -1 -1 -1 -1 -0 -0 0 0 -1 -2 -1 -1 -0 0 -0 -1 -1 -1 -1 -2 -3 -4 -6 -5 -4
-2 -3 -4 -2 0 3 4 3 0 -2 -3 -1 -1 -1 -2 -0 1 1 -2 -2 -1 1 1 0 2 4 6 3 -1 -4 -4 -1 1 4 4 4 3 -0 -5 -5 -1 2 3 0 -1 -1 -1 -2 -2 -1 0 0 -0 -1 -1 -1 -1 -1 -1 -1 -1 -1 -1 -1 -1 -1 -1 -1 -1 -1 -1 -1 -0 0 0 -0 -1 -1 -1 -1 -1 -2 -3 -4 -4 -4
-3 -2 -3 -3 -1 1 3 4 1 -2 -4 -2 -0 1 1 0 1 1 -1 -2 -2 -0 0 -0 1 3 8 8 4 -2 -6 -5 -2 2 4 4 4 2 -5 -7 -3 1 5 2 -0 -1 -1 -1 -1 -1 0 1 0 -0 -1 -1 -1 -1 -1 -2 -2 -2 -2 -1 -2 -2 -2 -2 -1 -1 -1 -1 -1 -0 0 -0 -0 -1 -1 -1 -0 -0 -1 -2 -2 -2
-3 -3 -3 -2 -2 -1 1 2 2 -1 -3 -3 -1 1 2 0 -1 -1 -2 -2 -2 -1 -0 -1 -1 -1 2 8 10 6 -3 -7 -6 -2 2 3 4 3 -3 -6 -4 -0 4 3 1 -1 -1 -1 -1 -0 0 0 -0 -1 -1 -1 -1 -2 -2 -2 -2 -2 -2 -2 -2 -2 -2 -1 -1 -1 -1 -1 -1 -1 -1 -0 -0 -0 -0 -0 -0 0 -0 -0 -1 -1
-3 -1 -1 -2 -3 -2 -0 2 1 -1 -2 -2 -1 1 2 1 -1 -2 -2 -2 -2 -2 -2 -1 -1 -2 -2 1 7 9 0 -7 -8 -5 0 3 5 4 -2 -5 -4 -1 3 2 0 -1 -2 -1 -0 -0 -0 -1 -1 -1 -1 -2 -2 -2 -3 -3 -3 -2 -2 -2 -1 -0 0 1 0 0 -0 -1 -1 -1 -1 -1 -1 -0 -0 -1 -1 -1 -1 -2 -2 -2
-4 -0 1 -2 -4 -4 -0 2 1 -1 -3 -2 -1 -0 0 1 1 -0 -1 -0 -0 -1 -1 -2 -1 -1 -1 -1 3 5 -0 -7 -8 -6 -2 3 5 5 -1 -4 -3 -1 1 1 -1 -2 -1 -1 -0 -0 -1 -1 -1 -2 -2 -2 -3 -2 -2 -2 -1 -1 -0 1 1 1 1 1 2 2 2 2 1 0 -0 -1 -1 -1 -1 -1 -1 -1 -1 -3 -3 -3
-4 -0 3 -1 -5 -6 -2 2 2 1 -2 -2 -2 -1 -1 0 1 1 1 1 1 0 0 -1 -1 -0 0 -0 1 2 -1 -6 -7 -5 -1 3 5 4 -1 -3 -2 -1 1 -0 -1 -2 -1 -0 -0 -1 -2 -2 -2 -2 -2 -2 -1 -1 -1 -1 -1 -1 -1 -2 -2 -2 -3 -2 -1 -1 0 1 2 2 2 1 -0 -1 -1 -1 -0 0 -1 -2 -3 -3
-3 -1 2 1 -3 -6 -4 0 2 2 -0 -2 -2 -2 -2 -1 0 2 2 1 -0 -1 -0 -1 -1 0 0 -1 0 -0 -2 -6 -6 -4 0 4 6 4 -1 -3 -2 -0 1 -0 -1 -1 -1 -1 -1 -2 -2 -2 -2 -2 -1 -1 -2 -2 -3 -3 -4 -4 -4 -5 -5 -5 -4 -4 -3 -2 -1 -1 0 1 2 2 1 0 -1 0 1 1 0 -1 -1 -1
-4 -2 1 1 -1 -3 -3 -0 2 2 1 -1 -2 -3 -3 -2 -2 -0 1 1 -1 -1 -1 0 1 1 1 -0 -0 -1 -3 -6 -6 -4 -0 4 6 5 -1 -3 -2 0 1 0 -1 -1 -1 -1 -2 -2 -2 -2 -2 -2 -2 -3 -4 -5 -6 -6 -5 -5 -5 -5 -4 -4 -3 -2 -1 -1 -2 -2 -1 -1 -0 0 0 -0 -0 0 0 0 -0 -0 -0 -1
-2 -1 0 1 1 -0 -1 -0 1 1 1 -1 -2 -3 -3 -2 -2 -2 -1 -1 -1 -1 0 2 3 3 2 1 -0 -1 -4 -6 -5 -3 -1 2 4 3 -1 -2 -1 0 1 0 -0 -1 -1 -2 -2 -2 -2 -2 -2 -3 -4 -6 -6 -6 -6 -5 -5 -5 -5 -5 -4 -3 -1 -0 0 -0 -1 -1 -2 -1 -1 -1 -1 -1 -1 -0 -0 -1 -1 -1 -1 -1
-0 0 1 2 1 1 0 -0 -0 -0 -1 -1 -2 -2 -2 -2 -2 -2 -1 -1 -1 -0 1 2 3 3 3 1 -0 -2 -6 -7 -6 -3 -1 1 2 1 -1 -2 -1 0 0 -1 -1 -1 -1 -2 -2 -2 -2 -2 -3 -4 -6 -7 -6 -5 -4 -4 -4 -4 -4 -2 0 3 4 5 3 1 -1 -1 -1 -1 -1 -1 -1 -1 -1 -1 -1 -1 -1 -1 -1 -1
0 1 1 1 1 0 -0 -1 -1 -2 -3 -3 -3 -3 -2 -1 -0 0 0 -1 -0 1 2 2 2 2 1 -0 -1 -3 -7 -7 -5 -3 -1 0 1 1 -2 -3 -2 -1 -0 -1 -1 -1 -1 -2 -2 -2 -2 -2 -3 -5 -7 -6 -5 -4 -4 -3 -3 -1 1 4 7 8 8 5 3 0 -1 -1 -1 -1 -1 -1 -1 -1 -1 -1 -1 -1 -1 -1 -1 -2
-0 -0 -0 -0 -0 -1 -1 -2 -2 -3 -4 -4 -4 -4 -2 -1 1 2 2 1 1 1 1 1 1 1 0 -1 -2 -4 -6 -5 -3 -2 -1 -0 1 1 -2 -3 -3 -2 -1 -1 -2 -1 -1 -2 -2 -2 -2 -3 -4 -6 -6 -5 -5 -4 -3 -2 -0 2 5 8 9 8 5 2 -0 -1 -1 -0 -0 -0 -0 -1 -1 -1 -1 -1 -1 -1 -1 -2 -2 -2
-1 -1 -1 -1 -1 -1 -1 -2 -2 -3 -3 -3 -3 -3 -2 -0 1 2 2 2 1 0 -0 -0 -0 0 1 -1 -2 -4 -5 -3 -2 -0 -0 -0 0 0 -1 -2 -2 -2 -1 -2 -2 -1 -1 -2 -2 -2 -2 -3 -5 -6 -5 -5 -5 -4 -3 -1 1 4 7 8 7 5 2 -0 -1 -1 -1 -0 0 0 0 0 -0 -1 -1 -1 -1 -1 -2 -2 -3 -3
-1 -1 -1 -1 -1 -1 -1 -1 -1 -1 -1 -1 -1 -2 -1 -1 -0 0 0 0 -0 -1 -1 -1 -1 -0 1 0 -1 -3 -5 -3 -1 1 1 1 0 0 -0 -1 -2 -2 -1 -2 -2 -2 -2 -2 -2 -2 -2 -3 -5 -6 -5 -4 -4 -3 -1 1 4 6 8 8 7 4 1 -1 -1 -1 -1 -0 0 1 1 1 1 0 -0 -1 -1 -1 -2 -3 -3 -3
-0 -0 -0 -0 0 0 0 0 0 0 0 -0 -1 -1 -1 -1 -1 -1 -1 -1 -1 -1 -0 -0 -1 -0 1 1 0 -2 -4 -3 -2 0 1 1 1 0 -1 -1 -1 -1 -1 -1 -1 -2 -2 -2 -2 -3 -3 -4 -5 -6 -4 -3 -2 -1 1 4 6 7 8 8 6 3 -0 -1 -1 -1 -1 -0 1 2 2 2 2 2 1 0 -0 -1 -2 -2 -3 -2
1 2 2 2 1 1 1 1 1 1 1 -0 -1 -2 -2 -3 -2 -2 -1 -1 -1 -0 0 0 0 0 0 1 1 0 -2 -3 -3 -1 1 0 0 -0 -1 -1 -1 -1 -1 -1 -1 -1 -2 -2 -3 -3 -3 -4 -5 -5 -3 -3 -1 1 3 5 6 7 8 8 5 2 -0 -0 -0 -0 -0 0 1 2 2 2 2 2 2 1 1 -0 -1 -1 -1 -1
3 3 3 3 2 2 2 2 2 1 1 -1 -1 -2 -3 -3 -2 -2 -1 -1 -1 0 1 1 1 0 -0 -0 0 1 -0 -2 -2 -2 -0 0 -0 -0 -1 -1 -1 -1 -2 -1 -1 -1 -1 -2 -3 -3 -3 -4 -5 -5 -3 -2 -0 1 3 4 6 8 9 7 4 1 -0 -0 -0 -0 -1 -0 1 1 2 2 2 2 2 2 2 1 1 1 1 1
3 3 3 3 3 2 2 2 1 0 -1 -1 -2 -2 -2 -1 -1 -1 -1 -1 -0 0 1 1 1 1 1 -1 -1 -1 -1 -1 -1 -1 0 1 0 -0 -1 -1 -1 -1 -2 -2 -1 -1 -1 -2 -2 -3 -4 -4 -5 -6 -4 -2 -0 2 3 5 7 9 8 4 1 -0 -0 -0 -0 -1 -1 0 1 1 2 2 2 3 3 3 2 2 2 2 2 1
2 2 3 3 2 2 1 0 -1 -1 -1 -1 -1 -1 -0 -0 -0 -0 -0 -1 -1 -1 -0 1 1 2 2 1 0 -1 -2 -2 -2 -1 1 1 1 0 -1 -1 -1 -2 -2 -2 -2 -2 -1 -2 -2 -3 -3 -5 -6 -6 -5 -2 0 2 4 7 9 9 5 1 -1 -1 -0 -0 -0 -0 -0 0 1 1 1 2 2 3 3 3 3 3 3 2 2 2
2 2 2 2 1 0 -1 -1 -1 -1 -1 -0 0 1 1 1 0 0 -0 -0 -1 -1 -1 -1 -0 1 2 2 2 1 -1 -3 -2 -1 0 1 1 1 0 -0 -1 -1 -2 -2 -3 -3 -3 -3 -3 -3 -4 -5 -6 -6 -5 -3 0 3 6 10 10 7 0 -2 -1 -0 1 1 1 1 1 1 1 1 1 2 2 2 3 3 3 3 3 3 3 2
2 2 1 1 0 -1 -1 -1 -1 -0 0 1 1 1 1 1 0 0 0 -0 -1 -1 -1 -1 -1 -1 0 1 2 2 1 -1 -2 -2 -1 0 1 2 1 1 0 -1 -2 -2 -3 -3 -3 -4 -4 -4 -4 -5 -5 -4 -3 -2 1 4 9 11 8 3 -2 -2 -1 1 2 2 2 2 2 2 2 1 1 2 2 2 3 3 3 3 3 4 4 3
1 0 -0 -1 -1 -0 -0 1 1 2 2 2 1 1 0 0 0 0 0 -0 -1 -1 -1 -2 -2 -1 -1 0 1 2 2 1 0 -1 -1 -0 1 1 1 1 1 1 -0 -1 -1 -2 -2 -3 -4 -5 -4 -2 -1 -1 -1 -1 1 5 11 10 6 0 -3 -2 -1 0 1 1 2 2 2 2 2 2 2 2 3 3 3 3 3 3 3 3 4 4
-0 -1 -1 -1 -0 1 1 2 2 2 2 2 1 1 0 -0 -0 0 0 0 -0 -1 -1 -1 -2 -1 -1 -1 0 1 2 2 2 1 1 0 0 1 1 1 1 1 1 0 -0 -0 0 -1 -3 -4 -3 -0 1 2 2 1 3 6 12 9 3 -2 -5 -3 -3 -2 -2 -0 2 4 5 5 5 5 4 4 4 4 4 4 3 3 3 3 3 4
-1 -1 -1 -0 1 2 2 2 2 2 2 1 1 1 1 0 0 0 0 0 0 -0 -0 -1 -1 -1 -1 -0 0 1 2 2 2 2 2 2 1 1 1 1 1 1 2 1 1 0 1 1 -0 -2 -2 1 2 3 3 2 6 9 11 7 1 -4 -6 -3 -3 -3 -3 -2 0 2 5 6 7 7 7 6 6 5 5 5 4 4 3 3 3 3
-1 -0 0 1 1 2 2 2 2 1 1 1 1 1 1 1 0 0 0 0 0 0 0 -0 -1 -1 -1 0 0 1 1 1 2 2 2 2 1 1 0 -0 -0 -0 1 1 1 0 1 2 2 1 1 3 3 2 0 2 7 11 9 4 -1 -4 -3 1 1 -1 -3 -1 0 1 2 3 4 5 7 7 6 6 5 6 6 5 4 3 3 2
0 1 1 1 1 1 1 1 1 1 1 1 1 2 2 1 1 1 0 0 1 1 1 0 -0 -1 -1 -0 0 0 0 1 1 2 2 2 1 0 -1 -1 -1 -1 -0 0 0 0 1 2 2 2 2 4 4 2 -1 2 7 9 5 1 -1 -1 3 4 2 -1 -3 -0 1 1 2 1 1 2 4 7 8 8 6 6 6 6 6 4 3 3
1 1 2 2 1 0 0 0 1 1 1 2 2 2 2 2 2 2 1 1 1 1 2 1 0 -1 -1 -1 -1 -1 -0 0 1 2 2 2 1 0 -1 -1 -1 -1 -0 -1 -0 0 2 2 3 4 5 5 4 1 -2 4 6 6 2 1 1 2 4 3 0 -2 -3 -1 0 1 1 1 1 1 1 3 5 6 5 5 5 5 6 5 4 3
1 1 2 1 1 0 0 0 1 1 1 1 2 2 2 2 2 2 2 2 2 2 2 2 1 0 -1 -2 -2 -2 -1 -0 1 1 2 1 1 0 -0 -1 -0 0 0 -0 -0 1 2 4 6 7 7 4 1 -2 -3 0 1 1 -1 2 3 2 1 -3 -4 -4 -3 -1 0 1 0 -0 0 1 1 2 3 4 5 5 4 4 4 5 5 5
1 1 1 1 1 1 1 1 1 1 1 1 2 2 2 2 2 2 2 2 2 2 2 1 1 0 0 -0 -1 -1 -1 -1 -0 0 1 1 1 0 0 0 1 1 1 0 0 1 2 3 2 -0 -3 -4 -3 -2 -1 -1 -1 -1 1 3 2 -1 -6 -6 -5 -3 -1 -0 1 2 2 1 0 0 1 1 2 3 4 4 4 4 3 3 4 5
1 1 1 1 1 1 1 1 1 1 1 2 2 2 1 1 1 1 1 1 2 2 2 1 1 0 0 1 1 1 0 -1 -1 -1 -0 0 0 0 1 1 1 1 1 0 0 0 1 -0 -2 -4 -4 -2 -1 0 1 0 0 1 2 2 -1 -3 -3 -1 -0 0 1 1 1 1 3 2 1 1 1 1 2 2 3 3 4 4 4 3 3 3
1 1 1 0 0 0 1 1 1 1 1 1 2 1 1 1 1 1 1 2 2 2 1 1 0 1 1 2 3 3 2 -0 -1 -1 -0 -0 0 0 1 1 1 1 1 0 -0 -0 -0 -2 -3 -3 -2 -1 -1 -1 -1 0 1 2 2 0 -1 -2 1 0 1 2 4 3 1 0 2 2 2 2 2 2 2 2 2 3 4 4 4 3 3 3
1 0 0 0 0 0 0 1 1 1 1 1 1 1 1 1 1 1 1 1 2 1 0 -0 -0 -0 1 2 3 3 3 2 1 0 0 0 0 0 0 1 1 1 1 0 1 1 0 -1 -1 -0 -1 -1 -1 -0 1 2 1 1 0 -1 -1 -1 -1 -1 1 3 5 4 1 0 2 2 1 1 1 2 2 3 3 3 3 3 3 2 2 1
1 1 1 0 0 -0 0 0 1 1 1 0 0 1 1 1 1 1 1 2 1 1 1 -0 -1 -0 1 2 3 3 3 2 2 1 1 1 0 -0 -0 -1 -1 -0 0 1 1 0 -0 -0 -0 -0 -1 -1 -0 1 1 0 -1 -2 -2 -1 -1 -1 -1 1 3 6 7 3 0 0 2 1 1 1 1 2 3 3 3 3 3 2 2 2 1 1
2 2 1 1 0 0 0 0 1 1 1 0 0 0 1 1 1 2 2 2 1 1 1 0 -0 0 1 2 3 3 3 2 2 1 1 1 0 -1 -1 -1 -1 -1 0 1 1 -0 -1 -1 -2 -2 -1 0 1 1 0 -2 -3 -3 -2 -1 0 1 2 5 8 9 5 1 -0 1 2 2 2 2 2 3 3 3 3 3 3 3 2 2 2 2
1 1 1 1 1 0 0 1 1 1 1 1 0 0 -0 0 0 1 1 1 1 1 1 1 1 1 1 2 3 3 2 2 1 1 1 1 0 -0 -1 -1 -0 -0 0 1 1 -0 -1 -1 -1 -1 1 1 1 0 -1 -3 -3 -2 0 2 3 4 7 10 10 7 -1 -1 0 2 2 2 2 3 3 3 3 3 3 3 4 4 3 3 3 2
0 1 1 1 1 1 1 1 1 1 1 1 0 0 -0 -0 0 1 1 1 1 0 0 0 1 1 1 2 3 3 3 2 1 1 1 0 0 -0 -0 0 0 0 -0 0 0 1 1 1 1 1 1 1 0 -1 -2 -1 -1 1 2 3 4 7 11 11 7 1 -3 -0 2 2 2 2 2 2 2 2 2 2 2 3 3 4 5 4 2 1
-0 0 0 0 0 0 1 1 1 1 1 1 0 -0 -0 -0 0 1 1 1 1 0 -0 -0 0 1 1 2 3 3 3 2 1 1 1 0 0 0 0 1 1 1 0 -0 0 1 1 1 1 1 1 1 -0 -1 -2 -0 1 1 1 2 5 10 14 8 1 -3 -2 2 3 3 2 2 2 2 2 2 2 2 2 2 3 5 6 4 2 1
Height
5419 5415 5410 5405 5401 5397 5394 5388 5385 5382 5379 5374 5370 5367 5365 5363 5359 5356 5354 5351 5348 5344 5341 5338 5335 5333 5331 5329 5327 5325 5322 5320 5317 5314 5311 5308 5305 5302 5300 5298 5296 5295 5292 5291 5289 5288 5286 5285 5284 5282 5281 5281 5281 5281 5280 5280 5280 5280 5280 5280 5280 5280 5281 5281 5282 5282 5283 5284 5285 5285 5286 5287 5288 5289 5291 5293 5294 5295 5296 5299 5301 5303 5305 5308 5310 5313
5408 5404 5399 5394 5390 5388 5385 5380 5376 5373 5371 5367 5364 5361 5358 5356 5353 5350 5348 5345 5342 5339 5335 5332 5329 5326 5324 5321 5320 5317 5315 5312 5309 5306 5303 5301 5298 5296 5293 5291 5290 5287 5286 5284 5283 5281 5280 5278 5277 5276 5275 5274 5274 5273 5274 5274 5274 5274 5274 5274 5274 5274 5274 5274 5275 5275 5276 5277 5277 5278 5279 5279 5280 5282 5284 5285 5286 5288 5290 5292 5294 5295 5298 5300 5303 5306
5398 5395 5390 5384 5381 5379 5377 5373 5370 5366 5363 5360 5357 5355 5352 5349 5347 5344 5342 5339 5336 5333 5330 5327 5323 5320 5317 5315 5312 5310 5307 5304 5301 5299 5296 5294 5291 5289 5287 5285 5283 5280 5279 5278 5276 5275 5274 5272 5271 5270 5268 5267 5267 5267 5267 5267 5267 5267 5267 5267 5267 5268 5268 5268 5268 5269 5270 5270 5271 5271 5272 5273 5274 5275 5276 5278 5279 5281 5283 5285 5287 5289 5291 5293 5296 5299
5387 5385 5381 5376 5373 5370 5368 5366 5363 5359 5356 5353 5351 5348 5346 5343 5341 5338 5336 5333 5330 5327 5324 5321 5317 5314 5310 5307 5305 5302 5300 5297 5294 5292 5290 5287 5285 5283 5280 5278 5276 5274 5273 5271 5270 5269 5267 5266 5265 5264 5262 5261 5260 5260 5260 5260 5260 5260 5261 5261 5261 5261 5261 5262 5262 5263 5263 5264 5264 5265 5265 5266 5267 5268 5270 5271 5273 5274 5276 5278 5279 5282 5285 5287 5289 5292
5378 5375 5372 5369 5365 5363 5360 5358 5356 5353 5350 5347 5345 5342 5340 5338 5335 5332 5330 5327 5324 5321 5318 5315 5311 5308 5304 5300 5298 5295 5293 5290 5287 5285 5283 5281 5278 5276 5274 5271 5270 5268 5266 5265 5264 5262 5261 5260 5259 5258 5257 5255 5255 5254 5254 5254 5254 5254 5254 5254 5254 5255 5255 5255 5256 5256 5256 5257 5257 5258 5259 5260 5260 5262 5263 5264 5266 5267 5269 5270 5273 5275 5278 5280 5283 5285
5370 5367 5364 5361 5358 5355 5353 5351 5349 5346 5343 5340 5338 5337 5335 5332 5329 5326 5324 5321 5318 5315 5312 5308 5305 5301 5297 5294 5290 5288 5285 5283 5281 5279 5276 5274 5272 5269 5267 5265 5263 5262 5260 5259 5258 5256 5255 5254 5253 5252 5251 5250 5249 5248 5248 5248 5248 5247 5247 5247 5248 5248 5248 5249 5249 5250 5250 5250 5251 5252 5252 5253 5254 5255 5256 5257 5258 5260 5261 5263 5266 5269 5270 5273 5275 5278
5362 5360 5357 5355 5352 5349 5347 5345 5343 5340 5337 5334 5332 5330 5329 5326 5324 5321 5318 5315 5312 5308 5305 5301 5298 5295 5291 5287 5284 5281 5279 5276 5274 5272 5270 5268 5265 5263 5261 5259 5257 5256 5254 5253 5251 5250 5249 5248 5246 5245 5245 5244 5243 5242 5242 5242 5241 5241 5241 5241 5241 5242 5242 5242 5243 5243 5244 5244 5245 5245 5246 5246 5247 5248 5249 5250 5251 5253 5254 5256 5258 5260 5262 5265 5267 5270
5355 5353 5350 5348 5345 5343 5340 5339 5337 5335 5332 5329 5325 5323 5322 5320 5318 5315 5313 5309 5306 5302 5297 5294 5291 5289 5285 5281 5278 5275 5272 5270 5268 5266 5264 5261 5259 5257 5255 5253 5251 5250 5248 5247 5245 5244 5243 5241 5240 5239 5238 5238 5237 5236 5236 5236 5235 5235 5235 5235 5235 5235 5236 5236 5237 5237 5237 5238 5238 5239 5239 5240 5240 5241 5242 5243 5244 5245 5247 5249 5251 5253 5255 5257 5260 5264
5349 5347 5344 5342 5340 5337 5335 5332 5330 5329 5327 5323 5320 5317 5314 5311 5310 5308 5307 5304 5300 5296 5291 5287 5284 5282 5280 5276 5272 5269 5266 5264 5262 5260 5258 5256 5254 5251 5250 5248 5246 5245 5243 5241 5240 5238 5237 5235 5234 5233 5232 5232 5231 5230 5230 5230 5230 5230 5229 5229 5230 5230 5230 5230 5231 5231 5231 5231 5231 5232 5232 5233 5233 5234 5235 5236 5237 5239 5240 5242 5244 5245 5248 5250 5253 5257
5343 5341 5338 5336 5334 5332 5330 5327 5324 5322 5320 5317 5314 5310 5308 5304 5301 5299 5298 5297 5295 5291 5286 5282 5279 5276 5274 5271 5268 5265 5262 5260 5258 5256 5253 5251 5249 5247 5245 5243 5241 5240 5238 5236 5235 5233 5232 5230 5229 5228 5227 5226 5226 5225 5225 5224 5224 5224 5224 5224 5224 5224 5224 5224 5225 5225 5225 5225 5225 5225 5225 5226 5226 5227 5227 5229 5230 5231 5233 5235 5236 5238 5240 5243 5246 5250
5338 5335 5333 5330 5328 5326 5325 5322 5319 5316 5314 5311 5307 5304 5302 5299 5295 5291 5289 5289 5288 5286 5282 5278 5275 5271 5268 5266 5264 5261 5258 5256 5254 5252 5250 5247 5245 5243 5240 5239 5237 5235 5234 5232 5230 5229 5227 5225 5224 5223 5222 5221 5220 5220 5220 5219 5219 5218 5218 5218 5218 5218 5218 5218 5218 5218 5218 5218 5218 5219 5219 5219 5219 5220 5220 5222 5223 5224 5225 5228 5230 5231 5233 5235 5239 5242
5332 5330 5327 5325 5323 5321 5318 5316 5313 5311 5308 5305 5301 5298 5295 5294 5291 5287 5283 5281 5281 5280 5277 5274 5271 5268 5265 5262 5259 5257 5255 5253 5251 5249 5247 5245 5242 5239 5237 5235 5233 5231 5229 5227 5226 5224 5222 5221 5219 5218 5217 5216 5216 5215 5215 5214 5214 5214 5213 5213 5213 5213 5212 5212 5212 5212 5212 5212 5212 5212 5212 5213 5213 5213 5214 5215 5216 5218 5219 5221 5223 5225 5226 5229 5232 5235
5327 5325 5323 5320 5318 5316 5313 5310 5307 5305 5302 5299 5295 5292 5289 5288 5286 5283 5279 5277 5276 5274 5272 5270 5268 5265 5262 5259 5255 5253 5251 5249 5248 5246 5244 5242 5239 5236 5233 5231 5229 5227 5225 5223 5222 5220 5218 5216 5215 5214 5213 5212 5211 5211 5210 5210 5209 5209 5209 5208 5208 5207 5207 5207 5207 5207 5207 5207 5207 5207 5206 5206 5207 5207 5208 5209 5210 5212 5213 5215 5216 5218 5220 5223 5225 5229
5321 5319 5317 5315 5313 5311 5309 5305 5302 5299 5297 5294 5291 5287 5285 5283 5281 5279 5275 5273 5272 5270 5268 5266 5264 5262 5260 5256 5252 5249 5246 5245 5244 5243 5241 5240 5237 5233 5230 5227 5225 5224 5222 5220 5218 5216 5214 5212 5210 5210 5209 5208 5207 5206 5206 5205 5205 5205 5204 5204 5203 5203 5203 5203 5202 5202 5202 5202 5202 5202 5202 5202 5202 5203 5203 5203 5204 5205 5207 5208 5210 5212 5214 5216 5219 5223
5316 5314 5312 5310 5308 5306 5304 5301 5297 5294 5291 5289 5286 5283 5281 5279 5276 5274 5271 5269 5267 5266 5264 5262 5261 5260 5258 5254 5250 5246 5242 5240 5239 5238 5238 5237 5234 5230 5226 5223 5221 5220 5218 5216 5214 5212 5210 5209 5207 5206 5205 5205 5204 5203 5202 5201 5201 5201 5200 5200 5200 5200 5199 5199 5199 5198 5198 5197 5197 5197 5196 5196 5197 5197 5198 5198 5199 5199 5201 5202 5204 5206 5208 5211 5214 5217
5311 5309 5306 5304 5302 5300 5299 5296 5292 5289 5286 5284 5282 5279 5276 5274 5272 5270 5268 5265 5263 5262 5260 5258 5257 5256 5255 5252 5248 5243 5239 5235 5234 5233 5233 5233 5231 5228 5223 5218 5216 5215 5215 5212 5210 5208 5206 5205 5204 5203 5202 5201 5200 5200 5199 5198 5198 5198 5197 5197 5197 5196 5196 5195 5195 5195 5195 5194 5194 5193 5192 5192 5192 5192 5192 5192 5193 5194 5195 5196 5198 5200 5202 5205 5208 5211
5305 5303 5300 5298 5296 5295 5293 5290 5287 5284 5281 5279 5277 5275 5273 5270 5268 5266 5264 5262 5260 5258 5256 5254 5252 5251 5250 5249 5247 5243 5236 5232 5229 5229 5229 5228 5227 5224 5219 5215 5212 5211 5210 5209 5207 5205 5203 5201 5200 5200 5199 5198 5197 5196 5196 5195 5195 5195 5195 5195 5194 5194 5194 5194 5194 5193 5192 5191 5191 5190 5189 5189 5188 5188 5187 5188 5188 5188 5189 5190 5192 5194 5196 5199 5202 5205
5299 5297 5295 5293 5291 5289 5287 5285 5282 5280 5277 5275 5273 5271 5269 5267 5265 5263 5260 5259 5256 5254 5252 5250 5248 5246 5245 5243 5243 5240 5235 5229 5226 5225 5225 5225 5223 5220 5216 5211 5209 5207 5206 5205 5203 5201 5199 5198 5197 5196 5196 5195 5195 5194 5194 5193 5193 5193 5193 5193 5193 5192 5192 5192 5191 5191 5190 5190 5189 5188 5187 5186 5185 5184 5184 5183 5183 5184 5184 5185 5186 5188 5190 5192 5195 5198
5293 5292 5290 5288 5285 5283 5282 5280 5278 5275 5273 5271 5269 5267 5265 5264 5262 5260 5258 5256 5254 5251 5249 5246 5244 5242 5240 5238 5237 5235 5231 5226 5224 5222 5222 5221 5220 5217 5213 5208 5205 5204 5203 5201 5199 5197 5196 5195 5195 5194 5193 5193 5192 5192 5192 5191 5191 5191 5191 5191 5191 5191 5191 5190 5190 5189 5188 5187 5186 5185 5185 5184 5183 5181 5180 5180 5179 5179 5179 5180 5181 5182 5184 5186 5189 5192
5287 5287 5285 5283 5280 5278 5277 5276 5274 5272 5269 5267 5265 5264 5262 5261 5259 5257 5255 5253 5250 5248 5246 5243 5241 5239 5237 5235 5233 5231 5227 5224 5221 5220 5220 5219 5217 5214 5209 5205 5203 5201 5200 5198 5196 5194 5193 5193 5192 5191 5191 5191 5190 5190 5190 5190 5190 5190 5190 5190 5190 5190 5189 5188 5187 5186 5185 5184 5183 5182 5181 5180 5180 5179 5178 5176 5175 5175 5175 5175 5176 5177 5179 5181 5183 5186
5282 5281 5281 5278 5275 5273 5272 5272 5271 5269 5266 5264 5262 5261 5259 5258 5256 5254 5252 5249 5247 5245 5243 5240 5238 5236 5234 5231 5229 5227 5224 5221 5219 5218 5217 5216 5214 5211 5206 5203 5201 5199 5197 5195 5193 5192 5191 5191 5190 5190 5189 5189 5189 5189 5189 5189 5189 5189 5189 5188 5188 5187 5186 5185 5184 5183 5182 5181 5180 5179 5178 5177 5176 5175 5174 5173 5172 5171 5171 5171 5171 5172 5174 5175 5177 5180
5277 5276 5276 5275 5272 5270 5269 5268 5267 5266 5264 5262 5260 5258 5256 5254 5252 5250 5248 5246 5243 5241 5240 5238 5235 5234 5231 5229 5227 5224 5221 5219 5217 5215 5214 5214 5212 5209 5205 5201 5199 5197 5195 5193 5191 5190 5190 5189 5189 5188 5188 5188 5188 5188 5188 5188 5187 5187 5186 5186 5185 5184 5183 5182 5181 5180 5179 5178 5177 5176 5175 5174 5173 5171 5170 5169 5169 5168 5167 5166 5167 5168 5168 5170 5172 5174
5273 5272 5271 5270 5269 5267 5266 5265 5264 5262 5261 5259 5257 5255 5252 5250 5248 5246 5244 5242 5240 5239 5237 5235 5234 5232 5230 5227 5225 5222 5219 5216 5215 5213 5212 5210 5209 5206 5202 5199 5197 5195 5193 5192 5190 5190 5189 5188 5187 5187 5187 5187 5187 5187 5186 5186 5185 5185 5184 5183 5183 5182 5181 5180 5179 5178 5177 5176 5175 5174 5172 5170 5169 5168 5166 5165 5165 5164 5163 5162 5163 5163 5163 5165 5166 5169
5269 5268 5268 5267 5266 5265 5264 5262 5261 5259 5257 5255 5253 5251 5249 5247 5245 5243 5241 5239 5238 5236 5235 5234 5232 5230 5228 5225 5223 5220 5217 5215 5212 5211 5210 5208 5206 5203 5200 5198 5196 5194 5192 5191 5190 5189 5188 5187 5186 5186 5186 5186 5186 5185 5185 5184 5184 5183 5182 5182 5181 5180 5179 5178 5177 5177 5176 5175 5173 5172 5170 5168 5166 5164 5163 5161 5161 5160 5159 5158 5158 5158 5158 5159 5161 5163
5266 5265 5265 5264 5263 5262 5261 5259 5257 5255 5254 5251 5250 5248 5246 5245 5243 5241 5239 5237 5235 5234 5233 5231 5230 5228 5225 5224 5221 5219 5216 5213 5211 5209 5207 5206 5204 5201 5199 5196 5195 5193 5191 5190 5189 5188 5187 5186 5186 5185 5185 5185 5185 5184 5183 5183 5182 5182 5181 5180 5180 5179 5178 5178 5177 5176 5175 5173 5171 5169 5167 5165 5163 5161 5160 5158 5156 5155 5154 5153 5153 5153 5154 5155 5156 5158
5263 5262 5262 5261 5260 5259 5258 5256 5255 5253 5250 5248 5246 5245 5243 5242 5241 5239 5238 5235 5234 5232 5230 5229 5228 5226 5224 5221 5219 5216 5214 5212 5210 5208 5206 5204 5202 5200 5198 5195 5194 5192 5191 5190 5189 5188 5187 5186 5185 5185 5185 5184 5183 5183 5182 5182 5181 5181 5180 5179 5178 5178 5177 5177 5176 5175 5173 5171 5169 5167 5165 5162 5160 5158 5156 5154 5152 5151 5150 5149 5149 5149 5149 5150 5151 5153
5261 5260 5260 5259 5258 5256 5255 5254 5252 5250 5249 5246 5244 5243 5241 5240 5239 5237 5235 5234 5232 5230 5229 5227 5225 5224 5222 5220 5217 5215 5213 5211 5209 5207 5205 5203 5201 5199 5197 5195 5193 5192 5190 5189 5188 5187 5186 5185 5185 5184 5184 5183 5183 5182 5181 5181 5180 5180 5179 5178 5178 5177 5177 5176 5175 5173 5171 5169 5167 5164 5162 5159 5157 5155 5153 5151 5149 5148 5146 5145 5145 5145 5145 5145 5146 5148
5259 5259 5258 5257 5256 5255 5254 5252 5251 5249 5247 5245 5243 5241 5239 5238 5236 5235 5233 5231 5230 5228 5227 5225 5224 5222 5221 5219 5216 5214 5211 5210 5208 5206 5205 5202 5200 5199 5196 5194 5193 5191 5190 5189 5188 5187 5186 5185 5185 5184 5183 5183 5182 5181 5181 5180 5180 5179 5179 5178 5177 5177 5176 5175 5174 5172 5170 5167 5165 5162 5159 5157 5155 5153 5151 5149 5147 5145 5144 5143 5142 5141 5141 5142 5143 5144
5258 5257 5256 5255 5255 5253 5252 5251 5249 5248 5246 5244 5242 5240 5238 5236 5234 5233 5231 5230 5228 5227 5225 5224 5222 5221 5220 5218 5215 5213 5210 5208 5207 5205 5204 5202 5200 5198 5195 5194 5192 5190 5189 5188 5187 5186 5185 5185 5184 5184 5183 5182 5182 5181 5180 5180 5180 5179 5178 5178 5177 5176 5175 5174 5173 5170 5168 5165 5163 5160 5158 5156 5154 5152 5150 5148 5145 5144 5142 5140 5140 5139 5139 5139 5140 5141
5258 5257 5256 5255 5254 5252 5251 5250 5248 5246 5245 5242 5240 5238 5236 5234 5233 5231 5230 5229 5227 5226 5224 5223 5221 5220 5218 5217 5215 5213 5210 5208 5206 5205 5203 5202 5200 5197 5195 5193 5191 5190 5189 5188 5187 5186 5185 5185 5184 5184 5183 5182 5182 5181 5180 5180 5180 5179 5178 5178 5177 5176 5175 5173 5171 5169 5166 5164 5161 5159 5157 5155 5153 5151 5149 5147 5144 5142 5140 5139 5137 5136 5136 5136 5137 5139
5258 5257 5256 5255 5253 5251 5250 5249 5247 5245 5243 5241 5239 5237 5235 5233 5232 5230 5229 5228 5226 5225 5224 5222 5220 5219 5217 5216 5214 5212 5210 5208 5206 5204 5203 5201 5199 5197 5195 5193 5191 5190 5188 5188 5187 5186 5185 5185 5184 5184 5183 5183 5182 5181 5180 5180 5179 5179 5178 5177 5176 5175 5174 5172 5170 5168 5165 5163 5160 5158 5156 5155 5153 5150 5148 5146 5144 5141 5140 5138 5136 5135 5135 5135 5135 5137
5258 5256 5255 5254 5252 5250 5249 5247 5245 5244 5242 5240 5238 5236 5235 5233 5231 5230 5229 5227 5226 5225 5223 5222 5220 5219 5217 5215 5213 5211 5209 5207 5205 5204 5202 5201 5199 5197 5195 5193 5191 5190 5188 5187 5187 5186 5185 5185 5184 5183 5183 5183 5182 5181 5180 5180 5179 5178 5178 5177 5176 5175 5174 5171 5169 5166 5164 5162 5160 5158 5156 5155 5153 5151 5149 5146 5144 5142 5140 5138 5136 5135 5135 5135 5135 5136
5257 5255 5254 5253 5251 5250 5248 5246 5244 5243 5241 5240 5238 5236 5235 5233 5232 5230 5228 5227 5225 5224 5223 5221 5220 5218 5216 5215 5213 5210 5208 5206 5205 5203 5202 5201 5199 5197 5195 5194 5192 5190 5189 5187 5187 5186 5185 5185 5184 5184 5183 5183 5182 5181 5180 5180 5179 5178 5177 5177 5176 5175 5173 5170 5168 5165 5163 5161 5159 5158 5156 5155 5153 5151 5149 5147 5145 5143 5141 5139 5137 5136 5135 5135 5135 5136
5256 5255 5253 5252 5250 5249 5247 5245 5244 5242 5241 5239 5238 5236 5235 5233 5231 5230 5228 5226 5225 5224 5222 5220 5219 5217 5216 5214 5212 5210 5208 5206 5204 5202 5201 5200 5199 5197 5195 5194 5192 5190 5189 5188 5187 5186 5185 5185 5184 5184 5183 5182 5181 5181 5180 5180 5179 5178 5177 5177 5176 5175 5172 5170 5167 5165 5163 5161 5160 5159 5157 5156 5154 5152 5150 5149 5147 5145 5143 5141 5140 5138 5137 5137 5137 5138
5255 5254 5252 5251 5249 5248 5246 5245 5244 5242 5241 5239 5238 5236 5234 5233 5231 5230 5228 5226 5224 5223 5221 5220 5218 5217 5215 5214 5212 5210 5208 5205 5203 5201 5200 5199 5198 5196 5195 5194 5192 5191 5190 5188 5187 5186 5186 5185 5185 5184 5183 5182 5181 5181 5180 5180 5179 5178 5178 5177 5176 5174 5172 5170 5168 5165 5164 5162 5161 5160 5158 5157 5155 5154 5152 5150 5149 5147 5146 5144 5143 5141 5140 5140 5140 5141
5254 5253 5251 5250 5249 5248 5246 5245 5244 5243 5241 5240 5238 5236 5234 5232 5231 5229 5227 5226 5224 5222 5220 5219 5217 5216 5215 5213 5211 5209 5207 5205 5203 5200 5199 5198 5197 5195 5194 5193 5192 5191 5190 5189 5188 5187 5186 5185 5185 5184 5183 5183 5182 5181 5180 5180 5179 5179 5178 5177 5176 5174 5172 5170 5168 5166 5165 5163 5162 5161 5160 5159 5157 5156 5155 5153 5152 5151 5149 5148 5146 5145 5144 5144 5144 5145
5254 5252 5251 5250 5249 5248 5247 5245 5244 5243 5241 5240 5238 5236 5234 5232 5230 5229 5227 5225 5224 5222 5220 5219 5217 5215 5214 5212 5211 5209 5207 5205 5202 5200 5199 5197 5196 5195 5193 5192 5191 5191 5190 5189 5188 5187 5186 5185 5185 5184 5183 5183 5182 5182 5181 5180 5179 5179 5179 5178 5176 5175 5173 5171 5169 5167 5166 5165 5164 5163 5162 5161 5160 5159 5158 5157 5156 5155 5153 5152 5151 5150 5149 5148 5148 5149
5253 5252 5251 5250 5249 5248 5247 5245 5244 5243 5241 5240 5238 5236 5234 5232 5230 5228 5227 5225 5224 5222 5220 5219 5217 5215 5214 5212 5210 5208 5206 5204 5202 5200 5198 5196 5195 5194 5192 5191 5190 5190 5189 5189 5188 5187 5186 5186 5185 5184 5184 5183 5182 5182 5181 5180 5179 5179 5179 5178 5176 5175 5173 5171 5170 5169 5167 5166 5165 5165 5164 5163 5163 5162 5161 5160 5159 5158 5157 5156 5155 5155 5154 5154 5154 5154
5253 5252 5251 5250 5249 5248 5246 5245 5244 5243 5241 5239 5237 5235 5234 5232 5230 5228 5227 5225 5224 5222 5220 5219 5217 5215 5213 5211 5210 5208 5206 5204 5202 5200 5198 5196 5194 5193 5192 5190 5189 5189 5188 5188 5187 5187 5186 5185 5185 5185 5184 5183 5182 5181 5180 5180 5180 5179 5179 5177 5176 5175 5174 5172 5171 5170 5169 5168 5167 5166 5165 5164 5164 5164 5163 5163 5163 5162 5161 5160 5160 5160 5160 5160 5160 5160
5253 5252 5251 5250 5249 5247 5246 5245 5244 5242 5240 5239 5237 5235 5234 5232 5230 5229 5227 5225 5224 5222 5220 5219 5217 5215 5213 5211 5210 5208 5205 5204 5201 5199 5197 5195 5193 5192 5191 5190 5189 5188 5187 5187 5187 5186 5185 5185 5184 5184 5183 5182 5182 5181 5180 5180 5180 5180 5178 5178 5176 5175 5175 5174 5172 5171 5170 5170 5169 5168 5167 5165 5165 5165 5165 5166 5166 5166 5165 5165 5164 5165 5165 5165 5165 5165
5253 5252 5251 5250 5248 5247 5246 5244 5243 5241 5240 5238 5237 5235 5234 5232 5231 5229 5228 5226 5224 5223 5221 5219 5218 5215 5213 5211 5209 5207 5205 5203 5201 5199 5196 5195 5193 5191 5190 5189 5188 5187 5187 5186 5186 5185 5185 5184 5184 5183 5182 5182 5182 5181 5180 5180 5180 5180 5179 5178 5177 5176 5175 5174 5173 5172 5171 5170 5170 5169 5168 5167 5166 5166 5166 5167 5168 5168 5168 5168 5169 5169 5169 5170 5170 5171
5253 5252 5251 5250 5248 5247 5245 5244 5242 5240 5239 5238 5236 5235 5234 5232 5231 5229 5228 5226 5225 5223 5222 5220 5218 5216 5214 5211 5209 5207 5205 5202 5200 5198 5196 5194 5192 5191 5190 5189 5188 5187 5187 5186 5185 5185 5185 5184 5184 5183 5183 5182 5181 5181 5180 5180 5180 5179 5179 5178 5177 5176 5175 5175 5174 5173 5172 5171 5170 5170 5169 5169 5168 5168 5168 5168 5168 5169 5170 5170 5171 5172 5173 5174 5175 5176
5253 5252 5251 5250 5248 5247 5245 5243 5242 5240 5239 5237 5236 5235 5233 5232 5230 5229 5228 5226 5225 5224 5222 5221 5219 5217 5215 5212 5210 5207 5205 5202 5200 5197 5195 5194 5192 5191 5190 5189 5188 5187 5187 5186 5185 5185 5184 5184 5183 5182 5182 5181 5181 5181 5181 5180 5180 5179 5179 5179 5178 5177 5176 5175 5175 5174 5174 5172 5171 5170 5170 5169 5169 5169 5169 5170 5170 5170 5171 5172 5173 5175 5176 5177 5178 5180
5253 5252 5251 5250 5248 5246 5245 5243 5241 5240 5239 5237 5236 5235 5233 5232 5230 5229 5228 5226 5225 5224 5222 5221 5219 5217 5215 5213 5210 5207 5205 5202 5200 5198 5196 5194 5193 5191 5190 5189 5188 5188 5187 5187 5186 5185 5185 5184 5183 5183 5182 5182 5182 5182 5181 5180 5180 5180 5180 5179 5179 5179 5178 5177 5176 5175 5175 5174 5173 5171 5171 5170 5170 5170 5170 5171 5171 5172 5173 5174 5175 5176 5178 5179 5181 5182
5253 5252 5251 5249 5248 5246 5245 5243 5241 5240 5238 5237 5236 5235 5233 5232 5230 5229 5228 5226 5225 5224 5223 5221 5220 5218 5215 5213 5210 5208 5205 5203 5201 5199 5197 5195 5194 5192 5191 5190 5189 5189 5188 5187 5187 5186 5185 5184 5183 5183 5183 5183 5182 5182 5182 5181 5180 5180 5180 5180 5180 5180 5180 5179 5178 5177 5176 5176 5174 5173 5172 5172 5172 5172 5172 5172 5173 5173 5174 5175 5176 5178 5180 5181 5183 5185
5253 5252 5250 5249 5248 5246 5245 5243 5241 5240 5238 5237 5235 5234 5233 5232 5230 5229 5228 5227 5225 5224 5223 5221 5220 5218 5215 5213 5211 5209 5206 5204 5202 5200 5198 5196 5195 5194 5192 5191 5190 5190 5189 5188 5187 5187 5186 5185 5185 5184 5184 5184 5183 5183 5182 5181 5181 5180 5181 5181 5182 5182 5181 5180 5180 5179 5179 5178 5176 5175 5174 5174 5174 5174 5174 5174 5174 5175 5176 5177 5179 5181 5183 5183 5184 5186
5253 5252 5250 5249 5248 5246 5245 5243 5241 5240 5238 5237 5235 5234 5233 5232 5230 5229 5228 5227 5225 5224 5223 5221 5220 5218 5215 5213 5211 5209 5207 5205 5202 5200 5199 5198 5196 5195 5194 5193 5192 5191 5190 5189 5188 5187 5187 5186 5186 5186 5185 5185 5184 5184 5183 5182 5182 5182 5182 5183 5183 5183 5182 5182 5181 5181 5181 5180 5178 5177 5176 5176 5175 5175 5175 5176 5177 5177 5178 5179 5181 5183 5184 5185 5185 5187
5253 5251 5250 5249 5247 5246 5245 5243 5241 5240 5238 5236 5235 5234 5233 5231 5230 5229 5228 5227 5226 5225 5223 5221 5220 5218 5215 5213 5211 5210 5207 5205 5203 5201 5200 5199 5198 5196 5195 5194 5193 5191 5190 5190 5189 5188 5188 5187 5187 5187 5187 5186 5186 5185 5184 5184 5183 5184 5184 5185 5185 5184 5184 5183 5184 5184 5183 5181 5180 5179 5179 5178 5178 5178 5178 5179 5179 5179 5179 5180 5181 5183 5185 5185 5187 5189
5253 5251 5250 5249 5247 5246 5245 5243 5241 5240 5238 5237 5235 5234 5232 5231 5230 5229 5228 5227 5225 5225 5223 5221 5220 5218 5216 5214 5212 5210 5208 5206 5204 5203 5201 5200 5199 5198 5196 5195 5194 5193 5191 5191 5190 5189 5189 5189 5188 5188 5188 5188 5188 5187 5186 5186 5186 5186 5186 5186 5186 5186 5185 5186 5186 5185 5184 5183 5182 5181 5181 5180 5180 5180 5180 5180 5181 5181 5181 5182 5183 5184 5185 5187 5188 5190
5253 5251 5250 5248 5247 5245 5244 5243 5241 5240 5238 5237 5235 5234 5232 5231 5230 5229 5228 5227 5225 5225 5223 5222 5220 5218 5216 5215 5213 5211 5209 5207 5205 5204 5202 5201 5200 5199 5197 5196 5195 5194 5192 5192 5191 5191 5190 5190 5190 5190 5190 5190 5190 5189 5189 5188 5188 5189 5189 5188 5188 5188 5188 5188 5188 5187 5186 5185 5185 5184 5184 5183 5183 5183 5183 5183 5183 5183 5184 5184 5185 5185 5187 5188 5189 5190
5252 5251 5250 5248 5246 5245 5244 5242 5241 5240 5238 5237 5235 5234 5233 5231 5230 5229 5228 5227 5226 5225 5223 5222 5220 5219 5217 5215 5214 5212 5210 5208 5206 5205 5204 5202 5201 5200 5199 5197 5196 5195 5194 5193 5192 5192 5192 5192 5192 5192 5192 5192 5192 5192 5191 5191 5191 5191 5190 5190 5190 5190 5190 5190 5190 5189 5188 5187 5187 5187 5186 5186 5186 5185 5185 5185 5185 5185 5186 5186 5186 5187 5189 5190 5190 5191